FAB2326 SBCC-SBBW

Flight info

Callsign FAB2326
Flight time N/A
Altitude 9000
Route DCT 12 34 33S 53 38 59W
Aircraft C95B/L-SDE3/C

Departure

Time N/A
Airport Campo de Provas Brigadeiro Veloso (SBCC)

Arrival

Time 2026-04-10 20:30
Airport Barra do Garças Airport (SBBW)
Time Latitude Longitude Altitude Speed Heading
2026-04-10 19:50 -13.73941 -53.14564 9000 ft 222 kts 158°
2026-04-10 19:50 -13.74411 -53.14363 9000 ft 222 kts 158°
2026-04-10 19:50 -13.76690 -53.13386 9000 ft 222 kts 158°
2026-04-10 19:50 -13.78095 -53.12784 9000 ft 222 kts 158°
2026-04-10 19:51 -13.79524 -53.12172 9000 ft 222 kts 158°
2026-04-10 19:51 -13.80961 -53.11556 9000 ft 222 kts 158°
2026-04-10 19:51 -13.82374 -53.10950 9000 ft 222 kts 158°
2026-04-10 19:51 -13.83805 -53.10336 9000 ft 222 kts 158°
2026-04-10 19:52 -13.85235 -53.09723 9000 ft 222 kts 158°
2026-04-10 19:52 -13.86648 -53.09117 9000 ft 222 kts 158°
2026-04-10 19:52 -13.88074 -53.08505 9001 ft 222 kts 158°
2026-04-10 19:52 -13.89511 -53.07889 9002 ft 222 kts 158°
2026-04-10 19:53 -13.90927 -53.07285 9004 ft 222 kts 158°
2026-04-10 19:53 -13.92347 -53.06674 9004 ft 223 kts 158°
2026-04-10 19:53 -13.93791 -53.06060 9001 ft 223 kts 158°
2026-04-10 19:53 -13.95221 -53.05449 9000 ft 223 kts 158°
2026-04-10 19:54 -13.96641 -53.04839 8996 ft 223 kts 158°
2026-04-10 19:54 -13.98070 -53.04222 9005 ft 222 kts 158°
2026-04-10 19:54 -13.99504 -53.03606 9000 ft 223 kts 158°
2026-04-10 19:54 -14.00932 -53.02988 9003 ft 222 kts 158°
2026-04-10 19:55 -14.02367 -53.02371 9003 ft 222 kts 158°
2026-04-10 19:55 -14.03780 -53.01768 8998 ft 223 kts 158°
2026-04-10 19:55 -14.05216 -53.01154 8998 ft 223 kts 158°
2026-04-10 19:55 -14.06655 -53.00535 9000 ft 222 kts 158°
2026-04-10 19:56 -14.08074 -52.99921 8991 ft 223 kts 158°
2026-04-10 19:56 -14.09516 -52.99299 8993 ft 223 kts 157°
2026-04-10 19:56 -14.10940 -52.98685 8981 ft 223 kts 157°
2026-04-10 19:56 -14.12356 -52.98075 8992 ft 222 kts 158°
2026-04-10 19:57 -14.13793 -52.97461 8999 ft 222 kts 157°
2026-04-10 19:57 -14.15209 -52.96854 8988 ft 223 kts 157°
2026-04-10 19:57 -14.16652 -52.96234 8981 ft 224 kts 158°
2026-04-10 19:57 -14.18095 -52.95619 8992 ft 222 kts 158°
2026-04-10 19:58 -14.19530 -52.95004 8983 ft 222 kts 157°
2026-04-10 19:58 -14.20941 -52.94394 8988 ft 222 kts 158°
2026-04-10 19:58 -14.22379 -52.93771 8987 ft 223 kts 158°
2026-04-10 19:58 -14.23809 -52.93152 8996 ft 222 kts 158°
2026-04-10 19:59 -14.25245 -52.92531 8987 ft 223 kts 158°
2026-04-10 19:59 -14.26660 -52.91921 8985 ft 223 kts 158°
2026-04-10 19:59 -14.28098 -52.91302 8987 ft 222 kts 158°
2026-04-10 19:59 -14.29514 -52.90692 8988 ft 222 kts 158°
2026-04-10 20:00 -14.30934 -52.90081 8987 ft 222 kts 158°
2026-04-10 20:00 -14.32371 -52.89462 8987 ft 222 kts 158°
2026-04-10 20:00 -14.33794 -52.88849 8987 ft 222 kts 158°
2026-04-10 20:00 -14.35211 -52.88238 8987 ft 222 kts 158°
2026-04-10 20:01 -14.36652 -52.87617 8987 ft 222 kts 158°
2026-04-10 20:01 -14.38075 -52.87004 8987 ft 222 kts 158°
2026-04-10 20:01 -14.39486 -52.86396 8987 ft 222 kts 158°
2026-04-10 20:01 -14.40916 -52.85779 8987 ft 222 kts 158°
2026-04-10 20:02 -14.42338 -52.85166 8988 ft 222 kts 158°
2026-04-10 20:02 -14.43767 -52.84550 8988 ft 222 kts 158°
2026-04-10 20:02 -14.45190 -52.83936 8988 ft 222 kts 158°
2026-04-10 20:02 -14.46625 -52.83317 8988 ft 222 kts 158°
2026-04-10 20:03 -14.48038 -52.82708 8988 ft 222 kts 158°
2026-04-10 20:03 -14.49471 -52.82089 8988 ft 222 kts 158°
2026-04-10 20:03 -14.50892 -52.81476 8988 ft 222 kts 158°
2026-04-10 20:03 -14.52315 -52.80862 8988 ft 222 kts 158°
2026-04-10 20:04 -14.53743 -52.80245 8988 ft 222 kts 158°
2026-04-10 20:04 -14.55168 -52.79630 8988 ft 222 kts 158°
2026-04-10 20:04 -14.56600 -52.79012 8988 ft 222 kts 158°
2026-04-10 20:04 -14.58017 -52.78400 8988 ft 222 kts 158°
2026-04-10 20:05 -14.59457 -52.77778 8988 ft 222 kts 158°
2026-04-10 20:05 -14.60879 -52.77164 8988 ft 222 kts 158°
2026-04-10 20:05 -14.62295 -52.76552 8988 ft 222 kts 158°
2026-04-10 20:05 -14.63718 -52.75937 8988 ft 222 kts 158°
2026-04-10 20:06 -14.65143 -52.75321 8988 ft 222 kts 158°
2026-04-10 20:06 -14.66574 -52.74702 8988 ft 222 kts 158°
2026-04-10 20:06 -14.67991 -52.74090 8988 ft 222 kts 158°
2026-04-10 20:06 -14.69424 -52.73471 8988 ft 222 kts 158°
2026-04-10 20:07 -14.72270 -52.72240 8988 ft 222 kts 158°
2026-04-10 20:07 -14.73699 -52.71622 8988 ft 222 kts 158°
2026-04-10 20:07 -14.75123 -52.71006 8988 ft 222 kts 158°
2026-04-10 20:08 -14.76563 -52.70382 8988 ft 222 kts 158°
2026-04-10 20:08 -14.77975 -52.69772 8989 ft 222 kts 158°
2026-04-10 20:08 -14.79405 -52.69153 8989 ft 222 kts 158°
2026-04-10 20:08 -14.80829 -52.68536 8989 ft 222 kts 158°
2026-04-10 20:09 -14.82248 -52.67922 8989 ft 222 kts 158°
2026-04-10 20:09 -14.83685 -52.67300 8989 ft 222 kts 158°
2026-04-10 20:09 -14.85111 -52.66682 8989 ft 222 kts 158°
2026-04-10 20:09 -14.86538 -52.66064 8989 ft 222 kts 158°
2026-04-10 20:10 -14.87959 -52.65449 8989 ft 222 kts 158°
2026-04-10 20:10 -14.89370 -52.64838 8988 ft 222 kts 158°
2026-04-10 20:10 -14.90807 -52.64215 8988 ft 222 kts 158°
2026-04-10 20:10 -14.92223 -52.63601 8989 ft 222 kts 158°
2026-04-10 20:11 -14.93659 -52.62979 8989 ft 222 kts 158°
2026-04-10 20:11 -14.95075 -52.62365 8989 ft 222 kts 158°
2026-04-10 20:11 -14.96519 -52.61739 8990 ft 222 kts 158°
2026-04-10 20:11 -14.97937 -52.61124 8989 ft 222 kts 158°
2026-04-10 20:12 -14.99352 -52.60511 8989 ft 222 kts 158°
2026-04-10 20:12 -15.00784 -52.59890 8989 ft 222 kts 158°
2026-04-10 20:12 -15.02209 -52.59271 8989 ft 222 kts 158°
2026-04-10 20:12 -15.03641 -52.58650 8988 ft 222 kts 158°
2026-04-10 20:13 -15.05077 -52.58026 8958 ft 224 kts 158°
2026-04-10 20:13 -15.06508 -52.57405 8953 ft 224 kts 158°
2026-04-10 20:13 -15.07935 -52.56786 8953 ft 224 kts 158°
2026-04-10 20:13 -15.09386 -52.56156 8952 ft 223 kts 158°
2026-04-10 20:14 -15.10805 -52.55540 8952 ft 223 kts 158°
2026-04-10 20:14 -15.12245 -52.54915 8953 ft 223 kts 158°
2026-04-10 20:14 -15.13663 -52.54300 8959 ft 223 kts 158°
2026-04-10 20:14 -15.15099 -52.53676 8961 ft 223 kts 158°
2026-04-10 20:15 -15.16537 -52.53051 8962 ft 223 kts 158°
2026-04-10 20:15 -15.17955 -52.52435 8963 ft 222 kts 158°
2026-04-10 20:15 -15.19361 -52.51824 8900 ft 216 kts 158°
2026-04-10 20:15 -15.20736 -52.51226 8764 ft 211 kts 158°
2026-04-10 20:16 -15.22067 -52.50647 8634 ft 208 kts 158°
2026-04-10 20:16 -15.23403 -52.50066 8504 ft 205 kts 158°
2026-04-10 20:16 -15.24703 -52.49502 8379 ft 203 kts 158°
2026-04-10 20:16 -15.26003 -52.48936 8251 ft 202 kts 158°
2026-04-10 20:17 -15.27304 -52.48371 8134 ft 207 kts 158°
2026-04-10 20:17 -15.28668 -52.47778 8020 ft 215 kts 158°
2026-04-10 20:17 -15.30072 -52.47167 7902 ft 221 kts 157°
2026-04-10 20:17 -15.31490 -52.46551 7783 ft 224 kts 157°
2026-04-10 20:18 -15.32944 -52.45918 7660 ft 227 kts 157°
2026-04-10 20:18 -15.34396 -52.45286 7537 ft 228 kts 157°
2026-04-10 20:18 -15.35860 -52.44649 7414 ft 229 kts 157°
2026-04-10 20:18 -15.37346 -52.44002 7289 ft 230 kts 157°
2026-04-10 20:19 -15.38810 -52.43364 7166 ft 230 kts 157°
2026-04-10 20:19 -15.40301 -52.42715 7040 ft 230 kts 157°
2026-04-10 20:19 -15.41766 -52.42077 6916 ft 230 kts 157°
2026-04-10 20:19 -15.43237 -52.41436 6792 ft 230 kts 157°
2026-04-10 20:20 -15.44729 -52.40786 6666 ft 230 kts 157°
2026-04-10 20:20 -15.46190 -52.40149 6542 ft 230 kts 157°
2026-04-10 20:20 -15.47671 -52.39503 6416 ft 230 kts 157°
2026-04-10 20:20 -15.49155 -52.38856 6290 ft 230 kts 157°
2026-04-10 20:21 -15.49599 -52.38663 6253 ft 230 kts 157°
2026-04-10 20:21 -15.51067 -52.38023 6128 ft 229 kts 157°
2026-04-10 20:21 -15.52529 -52.37385 6004 ft 229 kts 157°
2026-04-10 20:21 -15.54004 -52.36742 5878 ft 229 kts 157°
2026-04-10 20:22 -15.55471 -52.36102 5753 ft 228 kts 157°
2026-04-10 20:22 -15.56930 -52.35465 5629 ft 228 kts 157°
2026-04-10 20:22 -15.58400 -52.34824 5503 ft 228 kts 157°
2026-04-10 20:22 -15.59852 -52.34190 5378 ft 227 kts 157°
2026-04-10 20:23 -15.61309 -52.33554 5253 ft 227 kts 157°
2026-04-10 20:23 -15.62758 -52.32921 5129 ft 226 kts 157°
2026-04-10 20:23 -15.64212 -52.32286 5003 ft 226 kts 157°
2026-04-10 20:23 -15.65675 -52.31647 4831 ft 227 kts 157°
2026-04-10 20:24 -15.67103 -52.30997 4573 ft 225 kts 154°
2026-04-10 20:24 -15.68016 -52.30494 4406 ft 221 kts 150°
2026-04-10 20:24 -15.69303 -52.29659 4156 ft 216 kts 146°
2026-04-10 20:24 -15.70904 -52.28452 3821 ft 211 kts 143°
2026-04-10 20:25 -15.71673 -52.27828 3653 ft 210 kts 142°
2026-04-10 20:25 -15.72799 -52.26885 3403 ft 208 kts 141°
2026-04-10 20:25 -15.73891 -52.25960 3173 ft 197 kts 141°
2026-04-10 20:25 -15.75084 -52.25378 2955 ft 186 kts 170°
2026-04-10 20:26 -15.76296 -52.25561 2834 ft 168 kts 207°
2026-04-10 20:26 -15.77072 -52.26366 2808 ft 152 kts 242°
2026-04-10 20:26 -15.77513 -52.27323 2800 ft 146 kts 246°
2026-04-10 20:26 -15.77963 -52.28249 2792 ft 143 kts 241°
2026-04-10 20:27 -15.78501 -52.29122 2797 ft 143 kts 236°
2026-04-10 20:27 -15.79115 -52.29972 2813 ft 150 kts 232°
2026-04-10 20:27 -15.79783 -52.30830 2788 ft 157 kts 231°
2026-04-10 20:27 -15.80523 -52.31702 2631 ft 162 kts 227°
2026-04-10 20:28 -15.81288 -52.32530 2430 ft 158 kts 226°
2026-04-10 20:28 -15.82054 -52.33326 2226 ft 155 kts 226°
2026-04-10 20:28 -15.82766 -52.34160 2023 ft 152 kts 231°
2026-04-10 20:28 -15.83406 -52.35022 1821 ft 150 kts 234°
2026-04-10 20:29 -15.84013 -52.35898 1638 ft 145 kts 236°
2026-04-10 20:29 -15.84578 -52.36735 1518 ft 138 kts 236°
2026-04-10 20:29 -15.85110 -52.37530 1395 ft 135 kts 236°
2026-04-10 20:29 -15.85642 -52.38323 1177 ft 130 kts 235°
2026-04-10 20:30 -15.86071 -52.38951 1152 ft 77 kts 234°
2026-04-10 20:30 -15.86227 -52.39183 1152 ft 24 kts 229°
2026-04-10 20:30 -15.86270 -52.39313 1152 ft 13 kts 281°
2026-04-10 20:30 -15.86265 -52.39341 1152 ft 0 kts 281°